Regional Weather Roundup
Issued by NWS Goodland, KS

Home | Current Version | Previous Version | Text Only | Print | Product List | Glossary Off
Versions: 1 2 3 4 5 6 7 8 9 10 11 12 13 14 15 16 17 18 19 20 21 22 23 24 25 26 27 28 29 30 31 32 33 34 35 36 37 38 39 40 41 42 43 44 45 46 47 48 49 50

978
ASUS43 KGLD 250408
RWRGLD

GOODLAND FORECAST AREA HOURLY WEATHER ROUNDUP
NATIONAL WEATHER SERVICE GOODLAND KS
1000 PM MDT SUN SEP 24 2017

...OFFICIAL OBSERVATIONS...

CITY           SKY/WX    TMP DP  RH WIND       PRES   REMARKS
GOODLAND KS    RAIN      53  52  96 NE14      29.94S FOG
HILL CITY KS   LGT RAIN  59  58  96 NE12      29.93S
IMPERIAL NEB   CLOUDY    51  48  89 NE14      29.99F
MCCOOK NEB     CLOUDY    55  55 100 NE15      29.94F
AKRON CO       LGT RAIN  47  46  97 NE9       30.01R FOG
BURLINGTON CO  CLOUDY    51  51 100 NE9       29.97S
LIMON CO         N/A    N/A N/A N/A MISG        N/A
$$

...UNOFFICIAL OBSERVATIONS...

CITY           SKY/WX    TMP DP  RH WIND       PRES   REMARKS
LENORA KS        N/A     56  32  40 MISG        N/A
NORTON KS      DRIZZLE   55  52  88 NE12G22   29.93S
SHARON SPRINGS   N/A     54  53  97 NE9G16      N/A
TRIBUNE KS     CLOUDY    57  55  94 NE5       29.94
KIT CARSON CO    N/A     52  49  90 MISG        N/A
YUMA CO        TSTM      46  46 100 N7        30.02R
$$




USA.gov is the U.S. government's official web portal to all federal, state and local government web resources and services.